Location: Blandford
(50.8667°N, 2.1667°W)
Time: 16:48:58
(UTC+00:00)

Thor Agena Rocket - Pass Details

Date: 09 April 2020
Orbit: 760 x 807 km, 99.0° (Epoch: 28 May)

Event Time Altitude Azimuth Distance (km) Brightness Sun altitude
Rises 23:10:10 0° 13° (NNE) 3,242 7.6 -29.7°
Reaches altitude 10° 23:12:29 10° 11° (N) 2,315 6.7 -29.8°
Enters shadow 23:16:57 60° 325° (NW) 886 3.9 -30.0°
